Home   Weather   Victoria   Past weeks
Flag for Canada

Past Weather in Victoria, British Columbia, Canada — Yesterday and Last 2 Weeks

Now
68 °F

Passing clouds.


Feels Like: 68 °F
Forecast: 65 / 51 °F
Wind: 8 mph from East

Location: Victoria Int. Airportb. C.

Current Time: Jul 20, 2019 at 1:52:42 pm

Latest Report: Jul 20, 2019 at 1:00 pm


Visibility: 30 mi

Pressure: 30.11 "Hg

Humidity: 53%

Dew Point: 50 °F

Location of VictoriaLocation

Past Weather in Victoria — Graph

°F

Victoria Temperature Yesterday

Maximum temperature yesterday: 66 °F (at 2:00 pm)
Minimum temperature yesterday: 48 °F (at 3:00 am)
Average temperature yesterday: 59 °F

High & Low Weather Summary for the Past Weeks

 TemperatureHumidityPressure
High77 °F (Jul 13, 6:00 pm)100% (Jul 5, 11:00 pm)30.15 "Hg (Jul 5, 11:00 pm)
Low48 °F (Jul 19, 3:00 am)39% (Jul 13, 6:00 pm)29.80 "Hg (Jul 17, 11:00 am)
Average61 °F80%30.02 "Hg
* Reported Jul 5 12:00 pm — Jul 20 12:00 pm, Victoria. Weather by CustomWeather, © 2019

Note: Actual official high and low records may vary slightly from our data, if they occured in-between our weather recording intervals... More about our weather records

Advertising

Victoria Weather History for the Previous 24 Hours

Scroll right to see more
 ConditionsComfort  
Time TempWeatherWind HumidityBarometerVisibility
12:00 pm
Sat, Jul 20
66 °FPassing clouds.5 mph60%30.13 "Hg30 mi
11:00 am66 °FPassing clouds.8 mph64%30.13 "Hg30 mi
10:00 am64 °FPassing clouds.8 mph68%30.14 "Hg30 mi
9:00 am63 °FPassing clouds.6 mph64%30.14 "Hg30 mi
8:00 am59 °FPassing clouds.5 mph77%30.14 "Hg30 mi
7:00 am55 °FPassing clouds.8 mph88%30.14 "Hg30 mi
6:00 am52 °FPassing clouds.3 mph100%30.13 "Hg30 mi
5:00 am52 °FPassing clouds.6 mph100%30.13 "Hg30 mi
4:00 am54 °FClear.6 mph94%30.12 "Hg20 mi
3:00 am54 °FClear.5 mph88%30.12 "Hg20 mi
2:00 am54 °FClear.6 mph88%30.12 "Hg20 mi
1:00 am54 °FClear.3 mph88%30.12 "Hg20 mi
11:00 pm
Fri, Jul 19
55 °FPassing clouds.No wind77%30.12 "Hg20 mi
10:00 pm59 °FPassing clouds.3 mph68%30.12 "Hg30 mi
9:00 pm61 °FPassing clouds.3 mph59%30.11 "Hg30 mi
8:00 pm63 °FSunny.6 mph59%30.12 "Hg30 mi
7:00 pm66 °FPassing clouds.7 mph43%30.12 "Hg30 mi
6:00 pm66 °FPassing clouds.8 mph46%30.13 "Hg30 mi
5:00 pm66 °FPassing clouds.9 mph46%30.14 "Hg30 mi
4:00 pm66 °FPassing clouds.10 mph49%30.14 "Hg30 mi
3:00 pm66 °FPassing clouds.12 mph46%30.14 "Hg30 mi
2:00 pm66 °FPassing clouds.10 mph46%30.14 "Hg30 mi
1:00 pm64 °FPassing clouds.7 mph56%30.15 "Hg30 mi
Weather by CustomWeather, © 2019

See weather overview